K4SOF Weather Reports


time (UTC)temp
F
wind
direction
speed
knots
gust
knots
rain 1hr
in
rain 24hr
in
rain mn
in
humidity
%
barometer
mb
20260906113630 73 266 0.0 0.0 0.00 0.00 0.03 99 1014.3
20260906113130 73 265 0.0 0.9 0.00 0.00 0.03 99 1014.1
20260906112630 73 314 0.0 0.0 0.00 0.00 0.03 99 1014.3
20260906112129 73 314 0.0 0.0 0.00 0.00 0.03 99 1014.3
20260906111616 73 351 0.0 0.0 0.01 0.00 0.03 99 1013.9
20260906111116 73 351 0.0 0.0 0.01 0.00 0.03 99 1014.3
20260906110615 73 351 0.0 0.0 0.01 0.00 0.03 99 1014.2
20260906110321 73 351 0.0 0.0 0.01 0.00 0.03 99 1014.1
20260906105559 73 351 0.0 0.0 0.02 0.00 0.03 99 1014.1
20260906105059 73 345 0.9 0.9 0.02 0.00 0.03 99 1014.2
20260906104559 73 339 0.0 0.9 0.03 0.00 0.03 99 1014.3
20260906104059 73 264 0.0 0.9 0.03 0.00 0.03 99 1014.5
20260906103818 73 312 0.0 0.0 0.03 0.00 0.03 99 1014.4
20260906103059 74 43 0.9 0.9 0.03 0.00 0.03 99 1014.6
20260906102559 74 325 0.0 1.7 0.03 0.00 0.03 99 1014.5
20260906102321 74 222 0.0 1.7 0.03 0.00 0.03 98 1014.7
20260906101559 74 174 0.9 1.7 0.02 0.00 0.02 98 1014.6
20260906101044 74 104 0.9 1.7 0.02 0.00 0.02 98 1014.8
20260906100544 74 215 0.0 2.6 0.02 0.00 0.02 97 1014.6
20260906100030 75 313 0.9 1.7 0.01 0.00 0.01 97 1014.7
20260906095530 76 109 0.0 1.7 0.01 0.00 0.01 97 1014.6
20260906095250 76 298 0.0 0.9 0.00 0.00 0.00 95 1014.7
20260906094529 76 248 0.9 3.5 0.00 0.00 0.00 94 1014.4
20260906094029 76 287 0.0 0.9 0.00 0.00 0.00 95 1014.1
20260906093529 76 281 0.0 0.0 0.00 0.00 0.00 96 1014.1
20260906093030 77 281 0.0 0.0 0.00 0.00 0.00 95 1013.7
20260906092751 77 264 0.0 0.0 0.00 0.00 0.00 95 1013.6
20260906092029 77 264 0.0 0.0 0.00 0.00 0.00 94 1013.4
20260906091529 77 264 0.0 0.0 0.00 0.00 0.00 93 1013.5
20260906091029 78 263 0.0 0.9 0.00 0.00 0.00 91 1013.4
20260906090735 78 264 0.0 0.0 0.00 0.00 0.00 90 1013.7
20260906090000 78 321 0.0 0.0 0.00 0.00 0.00 90 1013.5
20260906085500 78 327 0.0 0.0 0.00 0.00 0.00 90 1013.2
20260906085000 78 227 0.9 1.7 0.00 0.00 0.00 90 1013.4
20260906084459 79 293 0.0 0.9 0.00 0.00 0.00 90 1013.5
20260906083959 79 287 0.0 0.9 0.00 0.00 0.00 91 1013.5
20260906083459 79 309 0.9 3.5 0.00 0.00 0.00 91 1013.7
20260906082959 79 137 0.9 2.6 0.00 0.00 0.00 93 1013.7
20260906082718 79 254 0.9 1.7 0.00 0.00 0.00 94 1013.7
20260906082219 78 206 0.9 0.9 0.00 0.00 0.00 94 1013.7
20260906081720 78 249 0.0 0.0 0.00 0.00 0.00 94 1013.7
20260906080959 78 248 0.0 1.7 0.00 0.00 0.00 94 1013.8
20260906080459 78 299 0.0 1.7 0.00 0.00 0.00 95 1013.9
20260906075944 78 255 0.0 0.9 0.00 0.00 0.00 95 1014.0
20260906075445 78 248 0.0 0.9 0.00 0.00 0.00 96 1014.0
20260906074944 77 318 0.0 0.0 0.00 0.00 0.00 97 1014.0
20260906074444 77 276 0.0 0.0 0.00 0.00 0.00 98 1014.0
20260906073944 77 274 0.0 0.0 0.00 0.00 0.00 99 1014.1
20260906073703 76 234 0.0 0.0 0.00 0.00 0.00 99 1014.0
20260906072944 76 249 0.0 0.0 0.00 0.00 0.00 99 1013.9
20260906072444 76 249 0.0 0.0 0.00 0.00 0.00 99 1013.7
20260906071944 76 251 0.0 0.0 0.00 0.00 0.00 99 1013.7
20260906071703 76 251 0.0 0.0 0.00 0.00 0.00 99 1013.7
20260906070944 76 251 0.0 0.0 0.00 0.00 0.00 99 1014.0
20260906070444 76 251 0.0 0.0 0.00 0.00 0.00 99 1013.9
20260906065930 76 251 0.0 0.0 0.00 0.00 0.00 99 1014.0
20260906065430 76 251 0.0 0.0 0.00 0.00 0.00 99 1013.8
20260906064930 76 251 0.0 0.0 0.00 0.00 0.00 99 1013.8
20260906064430 75 251 0.0 0.0 0.00 0.00 0.00 99 1014.1
20260906063930 75 251 0.0 0.0 0.00 0.00 0.00 99 1014.1
20260906063430 76 251 0.0 0.0 0.00 0.00 0.00 99 1013.9
20260906062930 76 251 0.0 0.0 0.00 0.00 0.00 99 1014.3
20260906062430 76 251 0.0 0.0 0.00 0.00 0.00 99 1014.0
20260906061930 75 251 0.0 0.0 0.00 0.00 0.00 99 1014.2
20260906061430 75 251 0.0 0.0 0.00 0.00 0.00 99 1014.3
20260906060915 76 251 0.0 0.0 0.00 0.00 0.00 99 1014.6
20260906060415 76 251 0.0 0.0 0.00 0.00 0.00 99 1014.4
20260906055900 75 251 0.0 0.0 0.00 0.00 0.00 99 1014.6
20260906055400 75 252 0.0 0.0 0.00 0.00 0.00 99 1014.3
20260906054900 75 252 0.0 0.0 0.00 0.00 0.00 99 1014.4
20260906054620 76 252 0.0 0.0 0.00 0.00 0.00 99 1014.4
20260906053900 75 252 0.0 0.0 0.00 0.00 0.00 99 1014.5
20260906053400 75 252 0.0 0.0 0.00 0.00 0.00 99 1014.5
20260906052900 75 252 0.0 0.0 0.00 0.00 0.00 99 1014.4
20260906052400 75 252 0.0 0.0 0.00 0.00 0.00 99 1014.6
20260906051900 75 252 0.0 0.0 0.00 0.00 0.00 99 1014.6
20260906051400 76 252 0.0 0.0 0.00 0.00 0.00 99 1014.6
20260906050900 76 252 0.0 0.0 0.00 0.00 0.00 99 1014.7
20260906050345 76 252 0.0 0.0 0.00 0.00 0.00 99 1014.5
20260906045845 76 252 0.0 0.0 0.00 0.00 0.00 99 1014.8
20260906045345 76 252 0.0 0.0 0.00 0.00 0.00 99 1014.7
20260906044845 76 252 0.0 0.0 0.00 0.00 0.00 98 1014.8
20260906044603 76 252 0.0 0.0 0.00 0.00 0.00 98 1014.8
20260906043845 76 252 0.0 0.0 0.00 0.00 0.00 98 1014.6
20260906043344 76 252 0.0 0.0 0.00 0.00 0.00 98 1014.6
20260906042844 76 252 0.0 0.0 0.00 0.00 0.00 98 1014.7
20260906042344 76 252 0.0 0.0 0.00 0.00 0.00 98 1014.8
20260906041844 76 252 0.0 0.0 0.00 0.00 0.00 97 1014.8
20260906041344 76 252 0.0 0.0 0.00 0.00 0.00 97 1014.6
20260906040844 76 252 0.0 0.0 0.00 0.00 0.00 97 1014.7
20260906040330 76 252 0.0 0.0 0.00 0.00 0.00 96 1014.6
20260906035829 76 252 0.0 0.0 0.00 0.00 0.00 96 1014.6
20260906035330 77 252 0.0 0.0 0.00 0.00 0.00 96 1014.6
20260906035049 77 252 0.0 0.0 0.00 0.00 0.00 96 1014.5
20260906034329 77 252 0.0 0.0 0.00 0.00 0.00 95 1014.5
20260906033829 77 252 0.0 0.0 0.00 0.00 0.00 95 1014.6
20260906033329 77 252 0.0 0.0 0.00 0.00 0.00 95 1014.7
20260906033049 77 252 0.0 0.0 0.00 0.00 0.00 95 1014.6
20260906032550 77 252 0.0 0.0 0.00 0.00 0.00 95 1014.5
20260906031829 77 252 0.0 0.0 0.00 0.00 0.00 96 1014.5
20260906031315 77 252 0.0 0.0 0.00 0.00 0.00 96 1014.6
20260906030814 77 252 0.0 0.0 0.00 0.00 0.00 96 1014.3
20260906030300 77 252 0.0 0.0 0.00 0.00 0.00 96 1014.3
20260906030018 77 252 0.0 0.0 0.00 0.00 0.00 96 1014.5
20260906025520 77 252 0.0 0.0 0.00 0.00 0.00 95 1014.4
20260906024759 77 252 0.0 0.0 0.00 0.00 0.00 95 1014.4
20260906024521 77 252 0.0 0.0 0.00 0.00 0.00 94 1014.3
20260906023759 78 252 0.0 0.0 0.00 0.00 0.00 94 1014.4
20260906023259 78 252 0.0 0.0 0.00 0.00 0.00 93 1014.3
20260906023020 78 252 0.0 0.0 0.00 0.00 0.00 93 1014.2
20260906022521 78 252 0.0 0.0 0.00 0.00 0.00 93 1014.2
20260906021759 78 252 0.0 0.0 0.00 0.00 0.00 93 1014.3
20260906021259 78 252 0.0 0.0 0.00 0.00 0.00 93 1014.3
20260906020759 78 252 0.0 0.0 0.00 0.00 0.00 93 1014.1
20260906020505 78 252 0.0 0.0 0.00 0.00 0.00 92 1014.1
20260906015745 78 252 0.0 0.0 0.00 0.00 0.00 91 1014.4
20260906015732 79 252 0.0 0.0 0.00 0.00 0.00 92 1014.0
20260906014745 79 252 0.0 0.0 0.00 0.00 0.00 92 1013.9
20260906014245 79 252 0.0 0.0 0.00 0.00 0.00 91 1013.8
20260906013745 79 252 0.0 0.0 0.00 0.00 0.00 91 1013.6
20260906013245 80 252 0.0 0.0 0.00 0.00 0.00 91 1013.4
20260906012745 80 252 0.0 0.0 0.00 0.00 0.00 89 1013.4
20260906012730 80 251 0.0 0.0 0.00 0.00 0.00 89 1013.2
20260906011745 80 251 0.0 0.0 0.00 0.00 0.00 89 1013.1
20260906011245 80 252 0.0 0.0 0.00 0.00 0.00 88 1013.1
20260906010745 81 251 0.0 0.0 0.00 0.00 0.00 87 1012.9
20260906010230 81 250 0.0 0.9 0.00 0.00 0.00 87 1012.9
20260906005949 81 260 0.0 0.0 0.00 0.00 0.00 87 1012.9
20260906005230 82 260 0.0 0.0 0.00 0.00 0.00 87 1012.7
20260906004730 82 233 0.0 0.0 0.00 0.00 0.00 86 1012.7
20260906004230 82 271 0.0 0.9 0.00 0.00 0.00 85 1012.7
20260906003730 83 261 0.0 0.0 0.00 0.00 0.00 85 1012.7
20260906003230 82 251 1.7 1.7 0.00 0.00 0.00 85 1012.6
20260906002730 83 289 0.0 0.9 0.00 0.00 0.00 85 1012.5
20260906002230 83 310 0.0 0.0 0.00 0.00 0.00 86 1012.6
20260906001715 83 280 0.0 0.0 0.00 0.00 0.00 86 1012.6
20260906001215 83 240 0.0 0.0 0.00 0.00 0.00 84 1012.5
20260906000715 84 313 0.0 0.0 0.00 0.00 0.00 84 1012.4
20260906000200 85 314 0.0 0.0 0.00 0.00 0.00 84 1012.4
20260905235700 85 238 0.0 0.0 0.00 0.00 0.00 82 1012.7
20260905235200 85 326 0.0 0.0 0.00 0.00 0.00 82 1012.4
20260905234700 86 352 0.0 0.0 0.00 0.00 0.00 81 1012.2
20260905234200 87 247 0.9 3.5 0.00 0.00 0.00 78 1012.6
20260905233700 87 271 0.9 2.6 0.00 0.00 0.00 78 1012.5
20260905233200 87 271 0.0 1.7 0.00 0.00 0.00 77 1012.6
20260905232659 87 287 0.9 1.7 0.00 0.00 0.00 77 1012.3
20260905232159 88 226 0.9 1.7 0.00 0.00 0.00 75 1012.5
20260905231659 89 222 1.7 2.6 0.00 0.00 0.00 74 1012.4
20260905231159 89 305 0.0 2.6 0.00 0.00 0.00 73 1012.3
20260905230659 90 257 0.0 2.6 0.00 0.00 0.00 71 1012.2
20260905230145 89 253 0.9 0.9 0.00 0.00 0.00 71 1012.1
20260905225645 89 233 0.0 0.9 0.00 0.00 0.00 75 1012.1
20260905225145 89 233 0.0 0.0 0.00 0.00 0.00 75 1012.1
20260905224645 89 233 0.0 2.6 0.00 0.00 0.00 72 1012.1
20260905224145 90 231 0.0 0.9 0.00 0.00 0.00 74 1011.8
20260905223645 90 214 0.9 2.6 0.00 0.00 0.00 69 1011.8
20260905223145 91 216 0.0 1.7 0.00 0.00 0.00 68 1011.7
20260905222905 92 284 0.9 1.7 0.00 0.00 0.00 66 1011.6
20260905222144 91 283 1.7 2.6 0.00 0.00 0.00 66 1011.6
20260905221644 92 278 0.9 3.5 0.00 0.00 0.00 65 1011.6
20260905221144 93 260 0.9 2.6 0.00 0.00 0.00 64 1011.6
20260905220644 95 205 0.9 2.6 0.00 0.00 0.00 59 1011.6
20260905220130 96 222 0.9 0.9 0.00 0.00 0.00 55 1011.5
20260905215850 96 206 0.0 0.0 0.00 0.00 0.00 52 1011.5
20260905215129 96 299 0.0 0.0 0.00 0.00 0.00 55 1011.3
20260905214848 100 300 0.9 0.9 0.00 0.00 0.00 47 1011.2
20260905214130 98 234 0.0 0.0 0.00 0.00 0.00 46 1011.0
20260905213629 98 234 0.0 0.0 0.00 0.00 0.00 48 1011.0
20260905213129 99 232 0.0 1.7 0.00 0.00 0.00 44 1011.5
20260905212848 100 231 0.0 0.9 0.00 0.00 0.00 49 1011.2
20260905212115 98 265 0.0 0.0 0.00 0.00 0.00 46 1011.3
20260905211615 98 273 0.0 0.0 0.00 0.00 0.00 45 1011.4
20260905211115 99 272 0.9 0.9 0.00 0.00 0.00 49 1011.7
20260905210615 95 273 0.0 0.0 0.00 0.00 0.00 57 1011.5
20260905210100 94 272 0.0 0.0 0.00 0.00 0.00 55 1011.9
20260905205600 95 272 0.0 0.9 0.00 0.00 0.00 53 1011.6
20260905205059 97 272 0.0 0.9 0.00 0.00 0.00 51 1011.9
20260905204819 100 213 0.9 2.6 0.00 0.00 0.00 43 1011.6
20260905204059 100 292 0.9 0.9 0.00 0.00 0.00 44 1011.5
20260905203559 100 283 0.9 0.9 0.00 0.00 0.00 42 1011.7
20260905203059 100 284 0.9 1.7 0.00 0.00 0.00 45 1011.7
20260905202559 100 230 0.9 1.7 0.00 0.00 0.00 44 1011.8
20260905202059 99 295 0.0 0.9 0.00 0.00 0.00 43 1011.9
20260905201559 98 230 0.0 0.9 0.00 0.00 0.00 47 1011.7
20260905201059 98 39 0.0 1.7 0.00 0.00 0.00 49 1011.8
20260905200559 97 296 0.0 2.6 0.00 0.00 0.00 48 1012.2
20260905200308 98 295 0.9 1.7 0.00 0.00 0.00 48 1012.1
20260905195545 99 307 1.7 2.6 0.00 0.00 0.00 49 1012.0
20260905195045 99 303 0.9 2.6 0.00 0.00 0.00 46 1011.8
20260905194530 99 290 1.7 1.7 0.00 0.00 0.00 47 1012.0
20260905194030 98 315 0.9 0.9 0.00 0.00 0.00 49 1012.1
20260905193530 98 188 0.0 1.7 0.00 0.00 0.00 51 1012.2
20260905193030 98 258 0.9 1.7 0.00 0.00 0.00 50 1012.2
20260905192516 99 340 0.9 1.7 0.00 0.00 0.00 48 1012.4
20260905192015 98 274 0.0 1.7 0.00 0.00 0.00 48 1012.4
20260905191736 98 315 0.9 1.7 0.00 0.00 0.00 51 1012.6
20260905191237 97 315 1.7 2.6 0.00 0.00 0.00 52 1012.7
20260905190500 98 286 0.9 2.6 0.00 0.00 0.00 48 1012.8
20260905185945 98 155 1.7 2.6 0.00 0.00 0.00 48 1012.9
20260905185445 97 248 1.7 1.7 0.00 0.00 0.00 49 1012.7
20260905185204 97 303 1.7 1.7 0.00 0.00 0.00 51 1012.8
20260905184445 96 174 1.7 1.7 0.00 0.00 0.00 54 1013.2
20260905183945 96 249 0.0 0.9 0.00 0.00 0.00 56 1013.3
20260905183707 97 56 0.9 2.6 0.00 0.00 0.00 53 1013.2
20260905182945 97 304 1.7 1.7 0.00 0.00 0.00 53 1013.3
20260905182445 94 261 0.0 0.9 0.00 0.00 0.00 55 1013.5
20260905181945 94 294 0.0 0.9 0.00 0.00 0.00 59 1013.7
20260905181444 94 312 0.0 2.6 0.00 0.00 0.00 57 1013.8
20260905180945 94 224 0.0 0.0 0.00 0.00 0.00 55 1014.0
20260905180445 97 93 0.0 0.0 0.00 0.00 0.00 53 1013.9
20260905175930 96 299 0.0 0.9 0.00 0.00 0.00 52 1014.0
20260905175430 95 293 0.9 1.7 0.00 0.00 0.00 58 1014.1
20260905174930 96 252 0.9 0.9 0.00 0.00 0.00 59 1014.2
20260905174652 95 213 0.0 0.9 0.00 0.00 0.00 57 1014.3
20260905173930 94 315 0.9 2.6 0.00 0.00 0.00 59 1014.3
20260905173430 96 300 0.9 1.7 0.00 0.00 0.00 54 1014.4
20260905172930 96 216 0.0 0.9 0.00 0.00 0.00 55 1014.3
20260905172430 97 317 0.0 0.9 0.00 0.00 0.00 56 1014.3
20260905171930 95 342 0.0 0.9 0.00 0.00 0.00 59 1014.5
20260905171430 94 247 0.9 2.6 0.00 0.00 0.00 58 1014.5
20260905170916 94 313 1.7 1.7 0.00 0.00 0.00 57 1014.5
20260905170415 94 281 0.0 0.9 0.00 0.00 0.00 60 1014.6
20260905165900 92 319 1.7 1.7 0.00 0.00 0.00 59 1015.0
20260905165400 91 31 0.0 1.7 0.00 0.00 0.00 60 1014.9
20260905164900 93 310 0.0 0.0 0.00 0.00 0.00 62 1015.2
20260905164400 95 188 0.0 1.7 0.00 0.00 0.00 58 1015.1
20260905163900 95 236 0.0 0.9 0.00 0.00 0.00 57 1015.1
20260905163846 94 297 0.9 0.9 0.00 0.00 0.00 56 1015.0
20260905163122 94 297 1.7 1.7 0.00 0.00 0.00 57 1015.4
20260905162400 93 248 0.0 1.7 0.00 0.00 0.00 60 1015.4
20260905161900 94 96 1.7 2.6 0.00 0.00 0.00 60 1015.3
20260905161621 93 304 0.9 1.7 0.00 0.00 0.00 61 1015.3
20260905160900 93 329 0.0 0.9 0.00 0.00 0.00 62 1015.3
20260905160400 92 219 0.9 3.5 0.00 0.00 0.00 62 1015.5
20260905160120 92 171 0.9 1.7 0.00 0.00 0.00 64 1015.4
20260905155359 91 209 0.9 1.7 0.00 0.00 0.00 67 1015.4
20260905154900 91 257 1.7 1.7 0.00 0.00 0.00 65 1015.4
20260905154359 91 9 0.0 0.9 0.00 0.00 0.00 65 1015.2
20260905153859 92 359 0.0 2.6 0.00 0.00 0.00 64 1015.3
20260905153359 92 284 0.0 0.0 0.00 0.00 0.00 66 1015.3
20260905152859 91 204 0.9 2.6 0.00 0.00 0.00 65 1015.3
20260905152618 90 145 0.0 0.9 0.00 0.00 0.00 69 1015.5
20260905151859 90 206 0.0 0.9 0.00 0.00 0.00 67 1015.5
20260905151359 90 260 0.9 0.9 0.00 0.00 0.00 69 1015.4
20260905150859 89 309 0.0 0.0 0.00 0.00 0.00 70 1015.5
20260905150345 89 240 0.9 1.7 0.00 0.00 0.00 71 1015.5
20260905145844 89 49 0.0 0.9 0.00 0.00 0.00 72 1015.4
20260905145344 88 100 0.0 0.9 0.00 0.00 0.00 73 1015.6
20260905144845 87 307 0.0 0.9 0.00 0.00 0.00 74 1015.6
20260905144344 86 265 0.0 1.7 0.00 0.00 0.00 76 1015.9
20260905143844 86 62 0.0 0.0 0.00 0.00 0.00 76 1015.8
20260905143344 85 325 1.7 3.5 0.00 0.00 0.00 76 1015.8
20260905142844 84 316 0.9 0.9 0.00 0.00 0.00 79 1015.9
20260905142606 84 14 0.9 0.9 0.00 0.00 0.00 79 1015.9
20260905141844 83 259 0.9 1.7 0.00 0.00 0.00 81 1016.0
20260905141344 82 279 0.0 0.9 0.00 0.00 0.00 84 1016.2
20260905140844 82 273 0.0 0.9 0.00 0.00 0.00 85 1016.0
20260905140330 81 286 0.9 2.6 0.00 0.00 0.00 85 1015.9
20260905135830 81 282 0.0 0.0 0.00 0.00 0.00 88 1016.3
20260905135330 81 257 0.0 0.9 0.00 0.00 0.00 88 1016.1
20260905134830 80 267 0.0 1.7 0.00 0.00 0.00 88 1016.3
20260905134330 79 294 0.0 0.0 0.00 0.00 0.00 90 1016.4
20260905133830 78 47 0.0 0.0 0.00 0.00 0.00 92 1016.4
20260905133330 78 298 0.0 0.0 0.00 0.00 0.00 94 1016.3
20260905132830 77 305 0.0 0.0 0.00 0.00 0.00 97 1016.3
20260905132318 76 304 0.0 0.0 0.00 0.00 0.00 99 1016.5
20260905131818 75 304 0.0 0.0 0.00 0.00 0.00 99 1016.6
20260905131316 75 305 0.0 0.0 0.00 0.00 0.00 99 1016.5
20260905130815 75 305 0.0 0.0 0.00 0.00 0.00 99 1016.6
20260905130300 74 304 0.0 0.0 0.00 0.00 0.00 99 1016.6
20260905130021 74 304 0.0 0.0 0.00 0.00 0.00 99 1016.6
20260905125300 74 304 0.0 0.0 0.00 0.00 0.00 99 1016.9
20260905125019 74 304 0.0 0.0 0.00 0.00 0.00 99 1016.8
20260905124300 74 304 0.0 0.0 0.00 0.00 0.00 99 1016.9
20260905123800 73 304 0.0 0.0 0.00 0.00 0.00 99 1016.8
20260905123300 73 304 0.0 0.0 0.00 0.00 0.00 99 1016.9
20260905122759 73 304 0.0 0.0 0.00 0.00 0.00 99 1016.8
20260905122259 73 304 0.0 0.0 0.00 0.00 0.00 99 1016.6
20260905121759 73 304 0.0 0.0 0.00 0.00 0.00 99 1016.6
20260905121259 72 304 0.0 0.0 0.00 0.00 0.00 99 1016.7
20260905120759 72 304 0.0 0.0 0.00 0.00 0.00 99 1016.6
20260905120508 72 304 0.0 0.0 0.00 0.00 0.00 99 1016.9
20260905115745 72 305 0.0 0.0 0.00 0.00 0.00 99 1016.7
20260905115505 72 305 0.0 0.0 0.00 0.00 0.00 99 1016.4
20260905114745 72 305 0.0 0.0 0.00 0.00 0.00 99 1016.7
20260905114245 72 305 0.0 0.0 0.00 0.00 0.00 99 1016.5